Location: Newport
(44.6370°N, 124.0520°W)
Time: 00:18:32
(UTC-08:00)

Tiangong 2 - Pass Details

Date: 12 October 2017
Orbit: 386 x 390 km, 42.8° (Epoch: 17 December)

Event Time Altitude Azimuth Distance (km) Brightness Sun altitude
Exits shadow 06:52:45 - 261° (W) 1,503 3.4 -7.1°
Reaches altitude 10° 06:52:57 10° 260° (W) 1,423 3.3 -7.1°
Maximum altitude 06:56:07 63° 180° (S) 441 1.4 -6.5°
Drops below altitude 10° 06:59:19 10° 98° (E) 1,426 5.8 -5.9°
Sets 07:01:24 0° 95° (E) 2,283 8.0 -5.6°
